SP5XSL-4 Weather Reports


time (UTC)temp
C
wind
direction
speed
KPH
gust
KPH
rain 1hr
cm
rain 24hr
cm
rain mn
cm
humidity
%
barometer
mb
20260508064504 8 40 17.7 17.7 0.00 0.00 0.00 1023.3
20260508063548 8 341 17.7 17.7 0.00 0.00 0.00 1023.4
20260508062702 8 13 20.9 32.2 0.00 0.00 0.00 1023.4
20260508061832 8 21 14.5 17.7 0.00 0.00 0.00 1023.5
20260508060842 8 173 6.4 14.5 0.00 0.00 0.00 1023.2
20260508055949 8 100 6.4 6.4 0.00 0.00 0.00 1023.1
20260508055012 8 15 11.3 14.5 0.00 0.00 0.00 1023.2
20260508054100 8 302 11.3 17.7 0.00 0.00 0.00 1023.0
20260508053139 8 257 14.5 17.7 0.00 0.00 0.00 1022.7
20260508052158 8 323 20.9 32.2 0.00 0.00 0.00 1022.9
20260508051218 8 83 14.5 17.7 0.00 0.00 0.00 1022.8
20260508050344 8 235 11.3 14.5 0.00 0.00 0.00 1022.8
20260508045422 8 292 17.7 25.7 0.00 0.00 0.00 1022.9
20260508044428 8 259 32.2 40.2 0.00 0.00 0.00 1023.0
20260508043548 8 334 20.9 25.7 0.00 0.00 0.00 1022.9
20260508042703 7 282 17.7 40.2 0.00 0.00 0.00 1022.9
20260508041819 7 289 20.9 25.7 0.00 0.00 0.00 1022.9
20260508040958 7 282 17.7 17.7 0.00 0.00 0.00 1022.8
20260508040112 7 285 17.7 25.7 0.00 0.00 0.00 1022.8
20260508035212 7 249 17.7 17.7 0.00 0.00 0.00 1022.7
20260508034259 7 277 17.7 17.7 0.00 0.00 0.00 1022.6
20260508033428 7 355 14.5 14.5 0.00 0.00 0.00 1022.6
20260508032542 7 36 11.3 17.7 0.00 0.00 0.00 1022.6
20260508031638 7 96 6.4 17.7 0.00 0.00 0.00 1022.4
20260508030748 7 287 14.5 14.5 0.00 0.00 0.00 1022.6
20260508025812 7 8 14.5 14.5 0.00 0.00 0.00 1022.4
20260508024942 7 186 6.4 14.5 0.00 0.00 0.00 1022.6
20260508024019 7 251 17.7 25.7 0.00 0.00 0.00 1022.4
20260508023152 7 245 17.7 17.7 0.00 0.00 0.00 1022.5
20260508022202 7 294 14.5 17.7 0.00 0.00 0.00 1022.7
20260508021158 7 195 6.4 6.4 0.00 0.00 0.00 1022.5
20260508020309 7 240 11.3 14.5 0.00 0.00 0.00 1022.4
20260508015342 7 186 11.3 14.5 0.00 0.00 0.00 1022.8
20260508014432 7 199 6.4 14.5 0.00 0.00 0.00 1022.5
20260508013602 7 7 17.7 25.7 0.00 0.00 0.00 1022.4
20260508012603 7 267 14.5 17.7 0.00 0.00 0.00 1022.4
20260508011645 7 132 11.3 14.5 0.00 0.00 0.00 1022.4
20260508010758 7 294 14.5 14.5 0.00 0.00 0.00 1022.4
20260508005822 7 186 11.3 14.5 0.00 0.00 0.00 1022.5
20260508004912 7 239 14.5 17.7 0.00 0.00 0.00 1022.5
20260508004052 7 139 11.3 14.5 0.00 0.00 0.00 1022.3
20260508003049 7 186 11.3 17.7 0.00 0.00 0.00 1022.3
20260508002113 7 280 14.5 25.7 0.00 0.00 0.00 1022.5
20260508001258 7 259 29.0 32.2 0.00 0.00 0.00 1022.3
20260508000434 7 271 14.5 25.7 0.00 0.00 0.00 1022.3
20260507235533 8 268 29.0 46.7 0.00 0.00 0.00 1022.3
20260507234639 8 269 17.7 25.7 0.00 0.00 0.00 1022.5
20260507233818 8 262 20.9 32.2 0.00 0.00 0.00 1022.4
20260507232808 8 185 29.0 40.2 0.00 0.00 0.00 1022.6
20260507231829 8 320 20.9 25.7 0.00 0.00 0.00 1022.1
20260507231012 8 336 20.9 25.7 0.00 0.00 0.00 1022.3
20260507230112 8 219 14.5 17.7 0.00 0.00 0.00 1022.4
20260507225243 8 65 25.7 32.2 0.00 0.00 0.00 1022.4
20260507224300 8 269 32.2 40.2 0.00 0.00 0.00 1022.2
20260507223310 8 41 17.7 25.7 0.00 0.00 0.00 1022.2
20260507222350 8 289 32.2 40.2 0.00 0.00 0.00 1022.0
20260507221502 8 281 29.0 46.7 0.00 0.00 0.00 1022.4
20260507220628 8 230 14.5 14.5 0.00 0.00 0.00 1022.2
20260507215733 8 319 20.9 25.7 0.00 0.00 0.00 1022.3
20260507214819 8 121 3.2 6.4 0.00 0.00 0.00 1022.0
20260507213938 8 263 32.2 40.2 0.00 0.00 0.00 1022.2
20260507213042 9 63 20.9 25.7 0.00 0.00 0.00 1022.1
20260507212103 9 179 6.4 6.4 0.00 0.00 0.00 1022.0
20260507211200 9 192 14.5 17.7 0.00 0.00 0.00 1021.7
20260507210332 9 132 11.3 14.5 0.00 0.00 0.00 1021.9
20260507205333 9 223 17.7 25.7 0.00 0.00 0.00 1021.9
20260507204412 9 113 14.5 17.7 0.00 0.00 0.00 1021.8
20260507203443 9 168 3.2 6.4 0.00 0.00 0.00 1021.8
20260507202612 9 193 14.5 17.7 0.00 0.00 0.00 1021.9
20260507201618 9 133 11.3 14.5 0.00 0.00 0.00 1021.7
20260507200719 9 228 20.9 25.7 0.00 0.00 0.00 1021.7
20260507195902 9 42 14.5 17.7 0.00 0.00 0.00 1021.5
20260507195032 9 164 20.9 32.2 0.00 0.00 0.00 1021.2
20260507194142 9 93 25.7 32.2 0.00 0.00 0.00 1021.4
20260507193138 9 333 35.4 46.7 0.00 0.00 0.00 1021.1
20260507192306 9 207 17.7 17.7 0.00 0.00 0.00 1021.1
20260507191442 9 321 29.0 32.2 0.00 0.00 0.00 1021.1
20260507190642 9 29 25.7 32.2 0.00 0.00 0.00 1021.3
20260507185758 9 323 25.7 32.2 0.00 0.00 0.00 1021.0
20260507184812 9 333 32.2 46.7 0.00 0.00 0.00 1021.1
20260507183903 10 39 43.5 61.2 0.00 0.00 0.00 1020.7
20260507182949 10 113 29.0 40.2 0.00 0.00 0.00 1020.8
20260507182055 10 207 29.0 40.2 0.00 0.00 0.00 1020.5
20260507181059 10 129 11.3 14.5 0.00 0.00 0.00 1020.5
20260507180052 10 246 32.2 40.2 0.00 0.00 0.00 1020.4
20260507175208 10 125 11.3 17.7 0.00 0.00 0.00 1020.0
20260507174332 10 219 29.0 40.2 0.00 0.00 0.00 1020.0
20260507173408 10 347 11.3 17.7 0.00 0.00 0.00 1019.8
20260507172543 10 279 17.7 32.2 0.00 0.00 0.00 1019.7
20260507171549 10 352 29.0 40.2 0.00 0.00 0.00 1019.6
20260507170712 10 284 20.9 25.7 0.00 0.00 0.00 1019.8
20260507165822 10 238 20.9 32.2 0.00 0.00 0.00 1019.5
20260507164752 10 283 14.5 17.7 0.00 0.00 0.00 1019.8
20260507163852 10 189 11.3 14.5 0.00 0.00 0.00 1019.5
20260507162849 10 327 29.0 40.2 0.00 0.00 0.00 1019.7
20260507161903 11 12 14.5 17.7 0.00 0.00 0.00 1019.9
20260507160953 11 298 17.7 25.7 0.00 0.00 0.00 1019.6
20260507155952 11 334 14.5 17.7 0.00 0.00 0.00 1019.8
20260507154953 11 286 17.7 25.7 0.00 0.00 0.00 1019.6
20260507154022 11 322 54.7 64.4 0.00 0.00 0.00 1019.7
20260507153019 11 221 35.4 61.2 0.00 0.00 0.00 1019.7
20260507152039 11 321 29.0 40.2 0.00 0.00 0.00 1019.5
20260507151158 11 252 32.2 54.7 0.00 0.00 0.00 1019.6
20260507150125 11 96 11.3 14.5 0.00 0.00 0.00 1019.4
20260507145252 11 123 3.2 6.4 0.00 0.00 0.00 1019.4
20260507144318 11 232 14.5 17.7 0.00 0.00 0.00 1019.3
20260507143432 11 92 11.3 14.5 0.00 0.00 0.00 1019.4
20260507142608 11 228 14.5 17.7 0.00 0.00 0.00 1019.2
20260507141802 11 114 3.2 6.4 0.00 0.00 0.00 1019.5
20260507140732 11 306 14.5 25.7 0.00 0.00 0.00 1019.3
20260507135740 11 206 6.4 14.5 0.00 0.00 0.00 1019.4
20260507134822 11 287 17.7 17.7 0.00 0.00 0.00 1019.4
20260507133830 11 180 14.5 25.7 0.00 0.00 0.00 1019.2
20260507133012 11 338 20.9 25.7 0.00 0.00 0.00 1019.3
20260507132139 11 149 14.5 14.5 0.00 0.00 0.00 1019.2
20260507131110 11 333 11.3 17.7 0.00 0.00 0.00 1019.0
20260507130120 11 137 3.2 14.5 0.00 0.00 0.00 1019.3
20260507125112 11 271 14.5 14.5 0.00 0.00 0.00 1019.1
20260507124159 11 321 11.3 17.7 0.00 0.00 0.00 1018.8
20260507123202 11 121 0.0 0.0 0.00 0.00 0.00 1018.8
20260507122306 12 136 0.0 6.4 0.00 0.00 0.00 1018.5
20260507121352 11 113 6.4 6.4 0.00 0.00 0.00 1018.7
20260507120338 11 129 6.4 6.4 0.00 0.00 0.00 1018.7
20260507115513 11 246 14.5 17.7 0.00 0.00 0.00 1018.4
20260507114602 11 188 17.7 25.7 0.00 0.00 0.00 1018.3
20260507113639 11 154 3.2 6.4 0.00 0.00 0.00 1018.1
20260507112809 11 238 17.7 17.7 0.00 0.00 0.00 1018.1
20260507111944 11 273 14.5 25.7 0.00 0.00 0.00 1018.1
20260507110240 11 196 11.3 14.5 0.00 0.00 0.00 1018.1
20260507105257 11 315 20.9 32.2 0.00 0.00 0.00 1018.2
20260507104340 11 222 11.3 17.7 0.00 0.00 0.00 1018.1
20260507103430 11 293 11.3 14.5 0.00 0.00 0.00 1017.7
20260507102430 10 336 14.5 17.7 0.00 0.00 0.00 1017.7
20260507101405 10 294 11.3 14.5 0.00 0.00 0.00 1017.7
20260507100410 10 214 11.3 14.5 0.00 0.00 0.00 1017.8
20260507095540 10 241 11.3 14.5 0.00 0.00 0.00 1017.6
20260507094708 10 124 3.2 6.4 0.00 0.00 0.00 1017.4
20260507093847 10 201 14.5 17.7 0.00 0.00 0.00 1017.5
20260507092945 10 299 11.3 14.5 0.00 0.00 0.00 1017.4
20260507092107 10 166 11.3 14.5 0.00 0.00 0.00 1017.0
20260507091046 10 324 14.5 14.5 0.00 0.00 0.00 1017.1
20260507090127 10 298 14.5 32.2 0.00 0.00 0.00 1016.9
20260507085300 10 332 6.4 14.5 0.00 0.00 0.00 1016.6
20260507084400 10 303 17.7 17.7 0.00 0.00 0.00 1016.6
20260507083448 10 97 6.4 6.4 0.00 0.00 0.00 1016.8
20260507082447 10 184 17.7 25.7 0.00 0.00 0.00 1016.7
20260507081518 10 136 0.0 6.4 0.00 0.00 0.00 1016.4
20260507080620 10 190 11.3 17.7 0.00 0.00 0.00 1016.2
20260507075650 10 215 14.5 17.7 0.00 0.00 0.00 1016.3
20260507074808 10 283 25.7 40.2 0.00 0.00 0.00 1015.9
20260507073828 10 291 14.5 17.7 0.00 0.00 0.00 1016.2
20260507072907 9 266 11.3 17.7 0.00 0.00 0.00 1016.1
20260507071917 9 88 11.3 14.5 0.00 0.00 0.00 1016.1
20260507071027 9 319 17.7 17.7 0.00 0.00 0.00 1015.5
20260507070128 8 190 11.3 17.7 0.00 0.00 0.00 1015.6